Location: *
(32.8667°N, 13.1833°E)
Time: 22:20:44
(UTC+00:00)

Cosmos 1464 Rocket - Pass Details

Date: 18 July 2019
Orbit: 952 x 1002 km, 82.9° (Epoch: 24 August)

Event Time Altitude Azimuth Distance (km) Brightness Sun altitude
Exits shadow 20:03:05 - 192° (SSW) 2,925 6.2 -19.5°
Reaches altitude 10° 20:03:35 10° 192° (SSW) 2,743 6.1 -19.6°
Maximum altitude 20:09:51 72° 277° (W) 1,031 4.2 -20.6°
Drops below altitude 10° 20:16:06 10° 1° (N) 2,724 6.9 -21.5°
Sets 20:18:37 0° 4° (N) 3,667 7.6 -21.9°
